UAL1485 KDEN-KOKC

Flight info

Callsign UAL1485
Flight time 1h 7m
Altitude 37000
Route EPKEE7 DUUZE ROLLS CAMET3
Aircraft B738/M-SDE2E3FGHIRWXY/LB1

Departure

Time 2026-05-08 15:16
Airport Denver International Airport (KDEN)

Arrival

Time 2026-05-08 16:23
Airport OKC Will Rogers World Airport (KOKC)
Time Latitude Longitude Altitude Speed Heading
2026-05-08 14:44 39.85332 -104.67304 5382 ft 0 kts 34°
2026-05-08 15:00 39.85321 -104.67314 5380 ft 4 kts 31°
2026-05-08 15:01 39.85297 -104.67331 5382 ft 4 kts 33°
2026-05-08 15:01 39.85281 -104.67347 5380 ft 4 kts 59°
2026-05-08 15:01 39.85276 -104.67379 5380 ft 4 kts 94°
2026-05-08 15:01 39.85277 -104.67403 5380 ft 0 kts 91°
2026-05-08 15:05 39.85277 -104.67383 5382 ft 4 kts 91°
2026-05-08 15:06 39.85276 -104.67325 5382 ft 9 kts 91°
2026-05-08 15:06 39.85275 -104.67229 5382 ft 12 kts 91°
2026-05-08 15:06 39.85274 -104.67123 5382 ft 12 kts 90°
2026-05-08 15:06 39.85274 -104.67020 5382 ft 11 kts 90°
2026-05-08 15:07 39.85274 -104.66921 5382 ft 11 kts 90°
2026-05-08 15:07 39.85274 -104.66824 5382 ft 11 kts 90°
2026-05-08 15:07 39.85273 -104.66730 5382 ft 10 kts 90°
2026-05-08 15:07 39.85272 -104.66638 5385 ft 10 kts 91°
2026-05-08 15:08 39.85283 -104.66551 5387 ft 10 kts 65°
2026-05-08 15:08 39.85294 -104.66495 5388 ft 10 kts 86°
2026-05-08 15:08 39.85294 -104.66382 5392 ft 9 kts 91°
2026-05-08 15:08 39.85293 -104.66300 5395 ft 9 kts 91°
2026-05-08 15:09 39.85316 -104.66245 5390 ft 7 kts 25°
2026-05-08 15:09 39.85369 -104.66238 5391 ft 9 kts
2026-05-08 15:09 39.85444 -104.66238 5388 ft 12 kts
2026-05-08 15:09 39.85537 -104.66237 5391 ft 14 kts
2026-05-08 15:10 39.85644 -104.66235 5391 ft 16 kts
2026-05-08 15:10 39.85758 -104.66234 5388 ft 16 kts
2026-05-08 15:10 39.85870 -104.66232 5387 ft 16 kts
2026-05-08 15:10 39.85977 -104.66231 5387 ft 15 kts
2026-05-08 15:11 39.86081 -104.66229 5385 ft 15 kts
2026-05-08 15:11 39.86187 -104.66228 5381 ft 16 kts
2026-05-08 15:11 39.86297 -104.66227 5381 ft 15 kts
2026-05-08 15:11 39.86403 -104.66225 5381 ft 15 kts
2026-05-08 15:12 39.86504 -104.66224 5377 ft 14 kts
2026-05-08 15:12 39.86604 -104.66223 5376 ft 15 kts
2026-05-08 15:12 39.86715 -104.66222 5375 ft 17 kts
2026-05-08 15:12 39.86847 -104.66221 5370 ft 20 kts
2026-05-08 15:13 39.86991 -104.66219 5367 ft 22 kts
2026-05-08 15:13 39.87148 -104.66216 5365 ft 22 kts
2026-05-08 15:13 39.87301 -104.66214 5363 ft 22 kts
2026-05-08 15:13 39.87451 -104.66213 5360 ft 21 kts
2026-05-08 15:14 39.87577 -104.66211 5361 ft 13 kts
2026-05-08 15:14 39.87668 -104.66210 5361 ft 13 kts
2026-05-08 15:14 39.87735 -104.66209 5360 ft 6 kts 11°
2026-05-08 15:14 39.87755 -104.66165 5360 ft 6 kts 82°
2026-05-08 15:15 39.87756 -104.66136 5359 ft 0 kts 91°
2026-05-08 15:15 39.87750 -104.65927 5356 ft 61 kts 92°
2026-05-08 15:15 39.87743 -104.65023 5347 ft 136 kts 91°
2026-05-08 15:15 39.87724 -104.63522 5433 ft 188 kts 93°
2026-05-08 15:16 39.87700 -104.61717 6113 ft 208 kts 92°
2026-05-08 15:16 39.87660 -104.59812 6940 ft 209 kts 91°
2026-05-08 15:16 39.87548 -104.57946 7784 ft 205 kts 97°
2026-05-08 15:16 39.87242 -104.56147 8473 ft 208 kts 104°
2026-05-08 15:17 39.86702 -104.54307 8796 ft 230 kts 111°
2026-05-08 15:17 39.86007 -104.52308 8981 ft 253 kts 112°
2026-05-08 15:17 39.85232 -104.50129 9216 ft 274 kts 112°
2026-05-08 15:17 39.84415 -104.47826 9646 ft 291 kts 112°
2026-05-08 15:18 39.83542 -104.45343 10115 ft 308 kts 112°
2026-05-08 15:18 39.82625 -104.42716 10417 ft 332 kts 111°
2026-05-08 15:18 39.81639 -104.39872 10711 ft 354 kts 111°
2026-05-08 15:18 39.80629 -104.36951 11337 ft 362 kts 111°
2026-05-08 15:19 39.79590 -104.33941 12064 ft 367 kts 111°
2026-05-08 15:19 39.78537 -104.30888 12815 ft 372 kts 111°
2026-05-08 15:19 39.77471 -104.27791 13548 ft 378 kts 111°
2026-05-08 15:19 39.76389 -104.24646 14212 ft 384 kts 111°
2026-05-08 15:20 39.75293 -104.21461 14876 ft 388 kts 111°
2026-05-08 15:20 39.74186 -104.18246 15571 ft 392 kts 111°
2026-05-08 15:20 39.73076 -104.15024 16240 ft 396 kts 111°
2026-05-08 15:20 39.71943 -104.11738 16893 ft 400 kts 111°
2026-05-08 15:21 39.70798 -104.08419 17566 ft 404 kts 111°
2026-05-08 15:21 39.69643 -104.05077 18245 ft 408 kts 111°
2026-05-08 15:21 39.68473 -104.01696 18816 ft 413 kts 111°
2026-05-08 15:21 39.67303 -103.98317 19347 ft 418 kts 111°
2026-05-08 15:22 39.66104 -103.94857 19912 ft 422 kts 111°
2026-05-08 15:22 39.64892 -103.91366 20472 ft 426 kts 110°
2026-05-08 15:22 39.63666 -103.87838 21003 ft 431 kts 110°
2026-05-08 15:22 39.62426 -103.84276 21536 ft 435 kts 110°
2026-05-08 15:23 39.61173 -103.80680 22055 ft 439 kts 110°
2026-05-08 15:23 39.59907 -103.77050 22605 ft 443 kts 110°
2026-05-08 15:23 39.58628 -103.73389 23118 ft 447 kts 110°
2026-05-08 15:23 39.57339 -103.69704 23628 ft 451 kts 110°
2026-05-08 15:24 39.56036 -103.65985 24071 ft 454 kts 110°
2026-05-08 15:24 39.54727 -103.62251 24520 ft 457 kts 110°
2026-05-08 15:24 39.53416 -103.58519 24976 ft 460 kts 110°
2026-05-08 15:24 39.52085 -103.54734 25402 ft 463 kts 110°
2026-05-08 15:25 39.50747 -103.50934 25802 ft 466 kts 110°
2026-05-08 15:25 39.49397 -103.47103 26205 ft 469 kts 109°
2026-05-08 15:25 39.48036 -103.43249 26586 ft 472 kts 109°
2026-05-08 15:25 39.46663 -103.39364 26956 ft 475 kts 109°
2026-05-08 15:26 39.45282 -103.35460 27331 ft 478 kts 109°
2026-05-08 15:26 39.43889 -103.31529 27689 ft 482 kts 109°
2026-05-08 15:26 39.42504 -103.27627 28029 ft 485 kts 109°
2026-05-08 15:26 39.41093 -103.23655 28367 ft 488 kts 109°
2026-05-08 15:27 39.39670 -103.19656 28697 ft 491 kts 109°
2026-05-08 15:27 39.38236 -103.15631 29039 ft 494 kts 109°
2026-05-08 15:27 39.36793 -103.11587 29358 ft 498 kts 109°
2026-05-08 15:27 39.35334 -103.07504 29675 ft 501 kts 109°
2026-05-08 15:28 39.33865 -103.03400 29985 ft 504 kts 108°
2026-05-08 15:28 39.32392 -102.99288 30243 ft 507 kts 108°
2026-05-08 15:28 39.30904 -102.95142 30510 ft 509 kts 108°
2026-05-08 15:28 39.29410 -102.90988 30796 ft 510 kts 108°
2026-05-08 15:29 39.27912 -102.86828 31100 ft 512 kts 108°
2026-05-08 15:29 39.26409 -102.82660 31369 ft 513 kts 108°
2026-05-08 15:29 39.24899 -102.78479 31689 ft 513 kts 108°
2026-05-08 15:29 39.23391 -102.74311 32087 ft 511 kts 108°
2026-05-08 15:30 39.21891 -102.70171 32517 ft 509 kts 108°
2026-05-08 15:30 39.20393 -102.66042 32903 ft 507 kts 108°
2026-05-08 15:30 39.18899 -102.61924 33246 ft 507 kts 108°
2026-05-08 15:30 39.17403 -102.57808 33588 ft 507 kts 108°
2026-05-08 15:31 39.15929 -102.53757 33951 ft 506 kts 108°
2026-05-08 15:31 39.14436 -102.49659 34281 ft 504 kts 108°
2026-05-08 15:31 39.12945 -102.45574 34573 ft 504 kts 109°
2026-05-08 15:31 39.11453 -102.41490 34839 ft 503 kts 109°
2026-05-08 15:32 39.09959 -102.37407 35109 ft 503 kts 109°
2026-05-08 15:32 39.08467 -102.33333 35387 ft 502 kts 110°
2026-05-08 15:32 39.06978 -102.29277 35666 ft 501 kts 110°
2026-05-08 15:32 39.05489 -102.25223 35920 ft 500 kts 110°
2026-05-08 15:33 39.04018 -102.21227 36179 ft 500 kts 111°
2026-05-08 15:33 39.02527 -102.17179 36453 ft 498 kts 111°
2026-05-08 15:33 39.01525 -102.14462 36638 ft 497 kts 111°
2026-05-08 15:33 39.00062 -102.10502 36874 ft 496 kts 112°
2026-05-08 15:34 38.98581 -102.06494 36975 ft 499 kts 112°
2026-05-08 15:34 38.97086 -102.02455 36954 ft 501 kts 112°
2026-05-08 15:34 38.94091 -101.94380 36940 ft 498 kts 112°
2026-05-08 15:35 38.91118 -101.86390 36934 ft 494 kts 113°
2026-05-08 15:35 38.88154 -101.78437 36935 ft 492 kts 113°
2026-05-08 15:36 38.84545 -101.71003 36936 ft 493 kts 132°
2026-05-08 15:36 38.79303 -101.65497 36931 ft 490 kts 152°
2026-05-08 15:37 38.73380 -101.61165 36929 ft 490 kts 153°
2026-05-08 15:37 38.67422 -101.56856 36935 ft 492 kts 153°
2026-05-08 15:38 38.61493 -101.52498 36931 ft 493 kts 152°
2026-05-08 15:38 38.55554 -101.48095 36922 ft 494 kts 152°
2026-05-08 15:39 38.49598 -101.43677 36923 ft 494 kts 153°
2026-05-08 15:39 38.43635 -101.39264 36920 ft 494 kts 153°
2026-05-08 15:40 38.37687 -101.34873 36920 ft 494 kts 153°
2026-05-08 15:40 38.31745 -101.30497 36913 ft 493 kts 153°
2026-05-08 15:41 38.25844 -101.26159 36911 ft 492 kts 153°
2026-05-08 15:41 38.19929 -101.21819 36912 ft 490 kts 154°
2026-05-08 15:42 38.14022 -101.17494 36911 ft 489 kts 154°
2026-05-08 15:42 38.08213 -101.13248 36914 ft 488 kts 154°
2026-05-08 15:43 38.02326 -101.08953 36922 ft 488 kts 154°
2026-05-08 15:43 37.96444 -101.04670 36933 ft 488 kts 154°
2026-05-08 15:44 37.90566 -101.00398 36940 ft 488 kts 155°
2026-05-08 15:44 37.84676 -100.96125 36943 ft 488 kts 155°
2026-05-08 15:45 37.78779 -100.91855 36941 ft 488 kts 155°
2026-05-08 15:45 37.72874 -100.87586 36941 ft 489 kts 155°
2026-05-08 15:46 37.67007 -100.83354 36925 ft 489 kts 155°
2026-05-08 15:46 37.61095 -100.79096 36913 ft 489 kts 155°
2026-05-08 15:47 37.55173 -100.74840 36904 ft 490 kts 155°
2026-05-08 15:47 37.49248 -100.70588 36906 ft 490 kts 156°
2026-05-08 15:48 37.40359 -100.64224 36906 ft 490 kts 156°
2026-05-08 15:49 37.34427 -100.59988 36908 ft 490 kts 156°
2026-05-08 15:49 37.28507 -100.55767 36908 ft 489 kts 156°
2026-05-08 15:50 37.22592 -100.51558 36904 ft 488 kts 156°
2026-05-08 15:50 37.16684 -100.47361 36899 ft 487 kts 156°
2026-05-08 15:51 37.10842 -100.43218 36904 ft 485 kts 156°
2026-05-08 15:51 37.04974 -100.39064 36900 ft 484 kts 156°
2026-05-08 15:52 36.99119 -100.34928 36899 ft 482 kts 156°
2026-05-08 15:52 36.93282 -100.30812 36896 ft 480 kts 157°
2026-05-08 15:53 36.87464 -100.26716 36896 ft 479 kts 157°
2026-05-08 15:53 36.81666 -100.22642 36900 ft 477 kts 157°
2026-05-08 15:54 36.75944 -100.18627 36897 ft 475 kts 158°
2026-05-08 15:54 36.70182 -100.14593 36897 ft 473 kts 158°
2026-05-08 15:55 36.64446 -100.10582 36895 ft 472 kts 158°
2026-05-08 15:55 36.55889 -100.04613 36890 ft 469 kts 158°
2026-05-08 15:56 36.50200 -100.00653 36909 ft 467 kts 158°
2026-05-08 15:56 36.44573 -99.96743 36906 ft 466 kts 158°
2026-05-08 15:57 36.38910 -99.92815 36920 ft 465 kts 158°
2026-05-08 15:57 36.33257 -99.88900 36927 ft 465 kts 158°
2026-05-08 15:58 36.27608 -99.84995 36931 ft 465 kts 158°
2026-05-08 15:58 36.21960 -99.81097 36936 ft 465 kts 158°
2026-05-08 15:59 36.16250 -99.77167 36492 ft 474 kts 158°
2026-05-08 15:59 36.13368 -99.75184 35978 ft 472 kts 158°
2026-05-08 15:59 36.10499 -99.73208 35413 ft 471 kts 158°
2026-05-08 16:00 36.07666 -99.71259 34777 ft 472 kts 157°
2026-05-08 16:00 36.04794 -99.69287 34133 ft 473 kts 157°
2026-05-08 16:00 36.01908 -99.67308 33372 ft 475 kts 157°
2026-05-08 16:00 35.99006 -99.65320 32635 ft 476 kts 156°
2026-05-08 16:01 35.96112 -99.63337 32038 ft 474 kts 156°
2026-05-08 16:01 35.93240 -99.61368 31554 ft 470 kts 156°
2026-05-08 16:01 35.90388 -99.59416 31047 ft 466 kts 156°
2026-05-08 16:01 35.87557 -99.57482 30571 ft 463 kts 156°
2026-05-08 16:02 35.84747 -99.55563 30088 ft 460 kts 156°
2026-05-08 16:02 35.81948 -99.53655 29537 ft 457 kts 156°
2026-05-08 16:02 35.79210 -99.51789 29017 ft 453 kts 156°
2026-05-08 16:02 35.76482 -99.49884 28529 ft 451 kts 150°
2026-05-08 16:03 35.74155 -99.47281 28052 ft 456 kts 130°
2026-05-08 16:03 35.72538 -99.43922 27583 ft 457 kts 114°
2026-05-08 16:03 35.71739 -99.40162 27096 ft 454 kts 95°
2026-05-08 16:03 35.71487 -99.36313 26650 ft 450 kts 93°
2026-05-08 16:04 35.71300 -99.32471 26163 ft 448 kts 92°
2026-05-08 16:04 35.71126 -99.28659 25697 ft 445 kts 92°
2026-05-08 16:04 35.70944 -99.24864 25239 ft 442 kts 92°
2026-05-08 16:04 35.70748 -99.21097 24780 ft 440 kts 92°
2026-05-08 16:05 35.70540 -99.17351 24319 ft 438 kts 92°
2026-05-08 16:05 35.70323 -99.13612 23849 ft 436 kts 92°
2026-05-08 16:05 35.70102 -99.09896 23353 ft 435 kts 92°
2026-05-08 16:05 35.69882 -99.06232 22829 ft 432 kts 92°
2026-05-08 16:06 35.69659 -99.02559 22366 ft 429 kts 93°
2026-05-08 16:06 35.69437 -98.98914 21883 ft 426 kts 93°
2026-05-08 16:06 35.69215 -98.95290 21427 ft 423 kts 93°
2026-05-08 16:06 35.68995 -98.91694 20981 ft 419 kts 94°
2026-05-08 16:07 35.68776 -98.88135 20540 ft 417 kts 94°
2026-05-08 16:07 35.68556 -98.84587 20087 ft 414 kts 94°
2026-05-08 16:07 35.68338 -98.81067 19649 ft 411 kts 94°
2026-05-08 16:07 35.68119 -98.77564 19215 ft 409 kts 94°
2026-05-08 16:08 35.67903 -98.74133 18774 ft 407 kts 94°
2026-05-08 16:08 35.67684 -98.70658 18317 ft 406 kts 95°
2026-05-08 16:08 35.67465 -98.67193 17810 ft 405 kts 95°
2026-05-08 16:08 35.67246 -98.63750 17343 ft 402 kts 95°
2026-05-08 16:09 35.67027 -98.60334 16886 ft 399 kts 95°
2026-05-08 16:09 35.66883 -98.58088 16587 ft 397 kts 95°
2026-05-08 16:09 35.66593 -98.53588 15983 ft 392 kts 95°
2026-05-08 16:09 35.66377 -98.50250 15553 ft 389 kts 95°
2026-05-08 16:10 35.66163 -98.46948 15118 ft 386 kts 95°
2026-05-08 16:10 35.65949 -98.43669 14694 ft 383 kts 95°
2026-05-08 16:10 35.65736 -98.40413 14266 ft 380 kts 95°
2026-05-08 16:10 35.65425 -98.37208 13881 ft 376 kts 101°
2026-05-08 16:11 35.64854 -98.34144 13493 ft 371 kts 105°
2026-05-08 16:11 35.64189 -98.31093 13050 ft 367 kts 106°
2026-05-08 16:11 35.63533 -98.28073 12713 ft 362 kts 105°
2026-05-08 16:11 35.62921 -98.25120 12546 ft 351 kts 104°
2026-05-08 16:12 35.62346 -98.22251 12404 ft 341 kts 104°
2026-05-08 16:12 35.61793 -98.19459 12266 ft 332 kts 104°
2026-05-08 16:12 35.61264 -98.16696 11888 ft 332 kts 103°
2026-05-08 16:12 35.60757 -98.13934 11546 ft 330 kts 103°
2026-05-08 16:13 35.60261 -98.11221 11219 ft 329 kts 103°
2026-05-08 16:13 35.59753 -98.08452 10883 ft 327 kts 103°
2026-05-08 16:13 35.59258 -98.05772 10556 ft 325 kts 103°
2026-05-08 16:13 35.58832 -98.03474 10283 ft 324 kts 103°
2026-05-08 16:14 35.58334 -98.00794 10093 ft 318 kts 103°
2026-05-08 16:14 35.57809 -97.98182 9942 ft 312 kts 107°
2026-05-08 16:14 35.57087 -97.95713 9891 ft 301 kts 111°
2026-05-08 16:14 35.56297 -97.93281 9348 ft 309 kts 112°
2026-05-08 16:15 35.55500 -97.90822 8964 ft 311 kts 112°
2026-05-08 16:15 35.54717 -97.88348 8663 ft 309 kts 112°
2026-05-08 16:15 35.53948 -97.85883 8337 ft 308 kts 112°
2026-05-08 16:15 35.53198 -97.83466 8044 ft 306 kts 112°
2026-05-08 16:16 35.52447 -97.81039 7822 ft 302 kts 112°
2026-05-08 16:16 35.51705 -97.78640 7598 ft 298 kts 112°
2026-05-08 16:16 35.50973 -97.76282 7389 ft 293 kts 112°
2026-05-08 16:16 35.50238 -97.73967 7184 ft 289 kts 117°
2026-05-08 16:17 35.49036 -97.72072 6955 ft 278 kts 145°
2026-05-08 16:17 35.47948 -97.71286 6832 ft 272 kts 161°
2026-05-08 16:17 35.45525 -97.70753 6524 ft 261 kts 182°
2026-05-08 16:17 35.43722 -97.70727 6329 ft 258 kts 183°
2026-05-08 16:18 35.41929 -97.70707 6079 ft 256 kts 182°
2026-05-08 16:18 35.40749 -97.70694 5904 ft 256 kts 183°
2026-05-08 16:18 35.38428 -97.70700 5534 ft 255 kts 183°
2026-05-08 16:18 35.36657 -97.70705 5255 ft 254 kts 183°
2026-05-08 16:19 35.34931 -97.70705 5165 ft 239 kts 183°
2026-05-08 16:19 35.33833 -97.70704 5112 ft 228 kts 182°
2026-05-08 16:19 35.32317 -97.70677 5005 ft 213 kts 180°
2026-05-08 16:19 35.30911 -97.70309 4894 ft 204 kts 158°
2026-05-08 16:20 35.29802 -97.69302 4791 ft 195 kts 140°
2026-05-08 16:20 35.29019 -97.67985 4668 ft 188 kts 123°
2026-05-08 16:20 35.28609 -97.66469 4411 ft 189 kts 104°
2026-05-08 16:20 35.28570 -97.64855 4148 ft 190 kts 92°
2026-05-08 16:21 35.28620 -97.63262 3921 ft 187 kts 87°
2026-05-08 16:21 35.28977 -97.61719 3551 ft 195 kts 66°
2026-05-08 16:21 35.29756 -97.60349 3281 ft 197 kts 45°
2026-05-08 16:21 35.30856 -97.59360 2992 ft 196 kts 24°
2026-05-08 16:22 35.32133 -97.58871 2787 ft 189 kts
2026-05-08 16:22 35.33426 -97.58848 2557 ft 186 kts 354°
2026-05-08 16:22 35.34766 -97.58888 2229 ft 202 kts 356°
2026-05-08 16:22 35.36173 -97.58888 1783 ft 201 kts 359°
2026-05-08 16:23 35.37519 -97.58900 1449 ft 187 kts 359°
2026-05-08 16:23 35.38756 -97.58895 1293 ft 164 kts
2026-05-08 16:23 35.39741 -97.58894 1290 ft 119 kts 360°
2026-05-08 16:23 35.40242 -97.58892 1293 ft 30 kts
2026-05-08 16:24 35.40386 -97.58925 1293 ft 17 kts 307°
2026-05-08 16:24 35.40385 -97.59033 1290 ft 12 kts 239°
2026-05-08 16:24 35.40314 -97.59066 1290 ft 11 kts 180°
2026-05-08 16:24 35.40236 -97.59065 1292 ft 11 kts 179°
2026-05-08 16:25 35.40161 -97.59064 1293 ft 11 kts 179°
2026-05-08 16:25 35.40086 -97.59063 1292 ft 10 kts 179°
2026-05-08 16:25 35.40015 -97.59063 1291 ft 10 kts 180°
2026-05-08 16:25 35.39946 -97.59064 1291 ft 10 kts 180°
2026-05-08 16:26 35.39876 -97.59064 1292 ft 10 kts 179°
2026-05-08 16:26 35.39802 -97.59063 1294 ft 11 kts 180°
2026-05-08 16:26 35.39727 -97.59063 1294 ft 11 kts 180°
2026-05-08 16:26 35.39646 -97.59063 1292 ft 12 kts 180°
2026-05-08 16:27 35.39558 -97.59063 1291 ft 13 kts 180°
2026-05-08 16:27 35.39470 -97.59064 1293 ft 12 kts 180°
2026-05-08 16:27 35.39386 -97.59062 1294 ft 12 kts 179°
2026-05-08 16:27 35.39301 -97.59063 1293 ft 13 kts 180°
2026-05-08 16:28 35.39232 -97.59067 1291 ft 8 kts 204°
2026-05-08 16:28 35.39216 -97.59132 1291 ft 9 kts 270°
2026-05-08 16:28 35.39216 -97.59207 1293 ft 9 kts 270°
2026-05-08 16:28 35.39216 -97.59285 1294 ft 10 kts 271°
2026-05-08 16:29 35.39217 -97.59374 1294 ft 11 kts 269°
2026-05-08 16:29 35.39216 -97.59476 1294 ft 14 kts 270°
2026-05-08 16:29 35.39217 -97.59611 1292 ft 18 kts 270°
2026-05-08 16:29 35.39217 -97.59766 1292 ft 17 kts 270°
2026-05-08 16:30 35.39248 -97.59893 1291 ft 16 kts 310°
2026-05-08 16:30 35.39331 -97.59992 1293 ft 17 kts 316°
2026-05-08 16:30 35.39420 -97.60095 1291 ft 19 kts 316°
2026-05-08 16:30 35.39508 -97.60197 1289 ft 9 kts 317°
2026-05-08 16:31 35.39557 -97.60187 1290 ft 8 kts 47°
2026-05-08 16:31 35.39584 -97.60131 1291 ft 8 kts 63°
2026-05-08 16:31 35.39605 -97.60073 1294 ft 7 kts 66°
2026-05-08 16:31 35.39624 -97.60018 1296 ft 7 kts 70°
2026-05-08 16:32 35.39631 -97.59960 1296 ft 7 kts 89°
2026-05-08 16:32 35.39631 -97.59902 1296 ft 6 kts 89°
2026-05-08 16:32 35.39610 -97.59862 1296 ft 6 kts 152°
2026-05-08 16:32 35.39576 -97.59858 1296 ft 4 kts 182°
2026-05-08 16:33 35.39565 -97.59858 1296 ft 0 kts 180°